User: anonymous   Login
Location: Unspecified
(0.0000°N, 0.0000°E)
Time: 01:57:42
(UTC+00:00)
Language:

Sunsat (SO-35) - Orbit

View from above orbital plane
View from above orbital plane
View from above satellite
View from above satellite

Ground track
Ground track

The orbit data is extracted from the following two-line orbital elements,

1 25636U 99008C   17147.77102024 +.00000030 +00000-0 +15578-4 0  9994
2 25636 096.4803 042.0095 0146516 028.2002 332.7030 14.44611020961828
Epoch (UTC): 27 May 2017 18:30:16
Eccentricity: 0.0146516
inclination: 96.4803°
perigee height: 639 km
apogee height: 847 km
right ascension of ascending node: 42.0095°
argument of perigee: 28.2002°
revolutions per day: 14.44611020
mean anomaly at epoch: 332.7030°
orbit number at epoch: 96182

The dashed part of the orbit path shows where the satellite is in the earth's shadow,  

DLR